Middletown, OH

4:12 PM EDT on June 26, 2017 (GMT -0400)
Hook Field Municipal

Weather History for KMWO - January, 2013

Change the Weather History Date:

Wednesday, January 30, 2013

  Actual Average (KFFO) Record (KFFO)
Temperature  
Mean Temperature 50 °F -  
Max Temperature 67 °F 36 °F 66 °F (2013)
Min Temperature 32 °F 19 °F -2 °F (2004)
Degree Days  
Heating Degree Days 16    
Moisture  
Dew Point 51 °F    
Average Humidity 89    
Maximum Humidity 100    
Minimum Humidity 80    
Precipitation  
Precipitation 0.00 in - - ()
Sea Level Pressure  
Sea Level Pressure 29.43 in    
Wind  
Wind Speed 18 mph (SW)    
Max Wind Speed 28 mph    
Max Gust Speed 40 mph    
Visibility 10 miles    
Events Rain    
Averages and records for this station are not official NWS values.
T = Trace of Precipitation, MM = Missing Value Source: NWS Daily Summary

Daily Weather History Graph

Daily Weather History Graph

Search for Another Location

Airport or City:

Trip Planner

Search our weather history database for the weather conditions in past years. The results will help you decide how hot, cold, wet, or windy it might be!

Date:

Astronomy

Jan. 30, 2013 Rise Set
Actual Time 7:46 AM EST 5:55 PM EST
Civil Twilight 7:18 AM EST 6:24 PM EST
Nautical Twilight 6:45 AM EST 6:56 PM EST
Astronomical Twilight 6:14 AM EST 7:28 PM EST
Moon 9:52 PM EST (1/30) 9:15 AM EST (1/30)
Length of Visible Light 11h 06m
Length of Day
10h 09m
Waning Gibbous, 88% of the Moon is Illuminated
Jan 30
Waning Gibbous
Feb 3
Last Quarter
Feb 10
New
Feb 17
First Quarter
Feb 25
Full

Hourly Weather History & Observations

Time (EST) Temp. Windchill Dew Point Humidity Pressure Visibility Wind Dir Wind Speed Gust Speed Precip Events Conditions
12:15 AM 63.3 °F - 59.7 °F 88% 29.58 in 10.0 mi SSW 21.9 mph 27.6 mph N/A   Scattered Clouds
12:35 AM 65.1 °F - 61.2 °F 87% 29.56 in 10.0 mi SSW 20.7 mph 26.5 mph N/A   Scattered Clouds
12:55 AM 66.7 °F - 62.1 °F 85% 29.55 in 10.0 mi SSW 20.7 mph 33.4 mph N/A   Clear
1:15 AM 65.3 °F - 60.1 °F 83% 29.54 in 10.0 mi SSW 21.9 mph 27.6 mph N/A   Scattered Clouds
1:35 AM 66.4 °F - 61.0 °F 83% 29.53 in 10.0 mi South 21.9 mph 35.7 mph N/A   Scattered Clouds
1:55 AM 65.3 °F - 59.9 °F 83% 29.51 in 10.0 mi South 17.3 mph 28.8 mph N/A   Clear
2:15 AM 67.6 °F - 62.1 °F 82% 29.51 in 10.0 mi South 19.6 mph 29.9 mph N/A   Scattered Clouds
2:35 AM 67.3 °F - 61.9 °F 83% 29.50 in 10.0 mi SSW 19.6 mph 27.6 mph N/A   Mostly Cloudy
2:55 AM 67.6 °F - 62.1 °F 82% 29.48 in 10.0 mi South 19.6 mph 25.3 mph N/A   Overcast
3:15 AM 67.6 °F - 62.1 °F 82% 29.47 in 10.0 mi SSW 21.9 mph 29.9 mph N/A   Mostly Cloudy
3:35 AM 67.6 °F - 61.7 °F 81% 29.46 in 10.0 mi SSW 19.6 mph 31.1 mph N/A   Overcast
3:55 AM 67.6 °F - 61.7 °F 81% 29.45 in 10.0 mi SSW 17.3 mph 27.6 mph N/A   Overcast
4:15 AM 67.6 °F - 61.7 °F 81% 29.43 in 10.0 mi SSW 21.9 mph 28.8 mph N/A   Overcast
4:35 AM 67.6 °F - 61.3 °F 80% 29.40 in 10.0 mi South 21.9 mph 29.9 mph N/A   Overcast
4:55 AM 67.6 °F - 61.2 °F 80% 29.38 in 10.0 mi South 19.6 mph 32.2 mph N/A   Overcast
5:15 AM 67.6 °F - 62.2 °F 83% 29.36 in 10.0 mi South 24.2 mph 32.2 mph N/A Rain Rain
5:35 AM 67.6 °F - 62.6 °F 84% 29.33 in 10.0 mi South 18.4 mph 31.1 mph N/A Rain Rain
5:55 AM 55.2 °F - 55.0 °F 99% 29.41 in 4.0 mi NW 17.3 mph 23.0 mph N/A Rain Rain
6:15 AM 52.7 °F - 52.7 °F 100% 29.45 in 5.0 mi NW 16.1 mph 20.7 mph N/A Rain Rain
6:35 AM 52.7 °F - 52.7 °F 100% 29.48 in 7.0 mi NW 10.4 mph 23.0 mph N/A Rain Rain
6:55 AM 52.7 °F - 52.7 °F 100% 29.52 in 10.0 mi NW 8.1 mph 17.3 mph N/A Rain Rain
7:15 AM 52.7 °F - 52.7 °F 100% 29.47 in 4.0 mi East 3.5 mph - N/A Rain Rain
7:35 AM 52.7 °F - 52.7 °F 100% 29.47 in 10.0 mi SE 5.8 mph - N/A Rain Light Rain
7:55 AM 52.7 °F - 52.7 °F 100% 29.47 in 10.0 mi SSE 10.4 mph - N/A Rain Light Rain
8:15 AM 52.7 °F - 52.7 °F 100% 29.48 in 10.0 mi SSE 5.8 mph - N/A Rain Rain
8:35 AM 52.7 °F - 52.7 °F 100% 29.48 in 10.0 mi South 6.9 mph - N/A Rain Light Rain
8:55 AM 52.7 °F - 52.7 °F 100% 29.45 in 10.0 mi South 10.4 mph - N/A Rain Light Rain
9:15 AM 52.7 °F - 52.7 °F 100% 29.46 in 10.0 mi South 15.0 mph 18.4 mph N/A Rain Light Rain
9:35 AM 53.1 °F - 53.1 °F 100% 29.46 in 10.0 mi South 11.5 mph - N/A   Overcast
9:55 AM 55.4 °F - 54.5 °F 97% 29.42 in 10.0 mi South 16.1 mph 23.0 mph N/A   Overcast
10:15 AM 55.4 °F - 54.1 °F 96% 29.41 in 10.0 mi SSW 9.2 mph - N/A   Overcast
10:35 AM 55.4 °F - 53.6 °F 94% 29.40 in 10.0 mi South 11.5 mph 17.3 mph N/A   Overcast
10:55 AM 55.4 °F - 53.4 °F 93% 29.42 in 10.0 mi SSW 16.1 mph 19.6 mph N/A   Mostly Cloudy
11:15 AM 55.4 °F - 52.9 °F 91% 29.42 in 10.0 mi SSW 10.4 mph 13.8 mph N/A   Mostly Cloudy
11:35 AM 55.4 °F - 52.9 °F 91% 29.42 in 10.0 mi SSW 16.1 mph 21.9 mph N/A   Scattered Clouds
11:55 AM 55.4 °F - 52.7 °F 91% 29.39 in 10.0 mi SSW 16.1 mph 21.9 mph N/A   Scattered Clouds
12:15 PM 55.8 °F - 53.2 °F 91% 29.42 in 10.0 mi SSW 16.1 mph - N/A   Mostly Cloudy
12:35 PM 55.8 °F - 53.2 °F 91% 29.41 in 10.0 mi SSW 16.1 mph 20.7 mph N/A   Overcast
12:55 PM 57.7 °F - 54.7 °F 90% 29.40 in 10.0 mi SW 17.3 mph 25.3 mph N/A   Overcast
1:15 PM 57.7 °F - 54.1 °F 88% 29.40 in 10.0 mi SSW 21.9 mph 29.9 mph N/A   Overcast
1:35 PM 57.6 °F - 54.0 °F 88% 29.39 in 10.0 mi SW 16.1 mph 27.6 mph N/A   Overcast
1:55 PM 55.6 °F - 52.2 °F 88% 29.38 in 10.0 mi SSW 16.1 mph 21.9 mph N/A   Overcast
2:15 PM 55.4 °F - 52.0 °F 88% 29.36 in 10.0 mi SSW 13.8 mph 21.9 mph N/A   Overcast
2:35 PM 55.4 °F - 51.8 °F 88% 29.34 in 10.0 mi SW 12.7 mph 17.3 mph N/A   Overcast
2:55 PM 55.6 °F - 51.3 °F 85% 29.35 in 10.0 mi SSW 16.1 mph 19.6 mph N/A   Overcast
3:15 PM 55.8 °F - 51.4 °F 85% 29.35 in 10.0 mi SSW 13.8 mph 23.0 mph N/A   Overcast
3:35 PM 55.4 °F - 51.1 °F 85% 29.35 in 10.0 mi SSW 16.1 mph - N/A   Overcast
3:55 PM 55.4 °F - 50.9 °F 85% 29.33 in 10.0 mi SSW 17.3 mph 23.0 mph N/A   Overcast
4:15 PM 55.4 °F - 50.9 °F 85% 29.32 in 10.0 mi SSW 13.8 mph 21.9 mph N/A   Mostly Cloudy
4:35 PM 55.4 °F - 50.9 °F 85% 29.33 in 10.0 mi SSW 13.8 mph 25.3 mph N/A Rain Light Rain
4:55 PM 55.4 °F - 50.9 °F 85% 29.32 in 10.0 mi SSW 16.1 mph 21.9 mph N/A   Overcast
5:15 PM 55.4 °F - 50.5 °F 84% 29.30 in 10.0 mi SSW 15.0 mph 21.9 mph N/A   Overcast
5:35 PM 55.4 °F - 50.2 °F 83% 29.30 in 10.0 mi SSW 15.0 mph 19.6 mph N/A   Overcast
5:55 PM 54.3 °F - 50.9 °F 88% 29.28 in 10.0 mi SSW 15.0 mph 19.6 mph N/A Rain Rain
6:15 PM 52.7 °F - 52.0 °F 97% 29.29 in 4.0 mi SW 16.1 mph 25.3 mph N/A Rain Rain
6:35 PM 51.4 °F - 50.5 °F 97% 29.33 in 5.0 mi West 27.6 mph 40.3 mph N/A Rain Heavy Rain
6:55 PM 41.2 °F 30.5 °F 40.6 °F 98% 29.37 in 5.0 mi WNW 27.6 mph 36.8 mph N/A   Unknown
7:15 PM 39.2 °F 29.8 °F 38.7 °F 98% 29.37 in 10.0 mi WNW 18.4 mph 29.9 mph N/A   Overcast
7:35 PM 38.8 °F 29.4 °F 37.8 °F 96% 29.39 in 10.0 mi West 18.4 mph 24.2 mph N/A   Overcast
7:55 PM 38.8 °F 32.1 °F 37.6 °F 95% 29.39 in 10.0 mi West 10.4 mph 19.6 mph N/A   Overcast
8:15 PM 38.8 °F 29.7 °F 36.5 °F 91% 29.41 in 10.0 mi West 17.3 mph 32.2 mph N/A   Overcast
8:35 PM 38.8 °F 28.5 °F 36.5 °F 91% 29.42 in 10.0 mi West 21.9 mph 34.5 mph N/A   Overcast
8:55 PM 37.6 °F 26.6 °F 33.1 °F 84% 29.44 in 10.0 mi West 23.0 mph 36.8 mph N/A   Overcast
9:15 PM 37.6 °F 26.3 °F 33.8 °F 86% 29.46 in 10.0 mi West 24.2 mph 35.7 mph N/A   Overcast
9:35 PM 35.1 °F 24.1 °F 31.3 °F 86% 29.47 in 10.0 mi West 19.6 mph 27.6 mph N/A   Overcast
9:55 PM 35.1 °F 24.5 °F 30.7 °F 84% 29.48 in 10.0 mi West 18.4 mph 27.6 mph N/A   Overcast
10:15 PM 35.1 °F 23.0 °F 30.6 °F 84% 29.49 in 10.0 mi West 24.2 mph 34.5 mph N/A   Overcast
10:35 PM 35.1 °F 23.0 °F 30.0 °F 82% 29.50 in 10.0 mi West 24.2 mph 31.1 mph N/A   Overcast
11:15 PM 33.1 °F 21.9 °F 28.2 °F 82% 29.53 in 10.0 mi West 18.4 mph 31.1 mph N/A   Overcast
11:35 PM 32.5 °F 19.9 °F 28.2 °F 84% 29.55 in 10.0 mi West 23.0 mph 34.5 mph N/A   Overcast
11:55 PM 32.5 °F 21.5 °F 28.4 °F 85% 29.57 in 10.0 mi West 17.3 mph 32.2 mph N/A   Overcast